QPF
0.00 0.00 0.00 0.00 0.00 0.00 0.00 0.00 0.00 0.00 0.00 0.02 0.03 0.01 0.00 0.00 0.01 0.00 0.00 0.00 0.00 0.00 0.00 0.00 0.00 0.00 0.00 0.00 0.00 0.00 0.00 0.00 0.00 0.00 0.00 0.00 0.00 0.00 0.00 0.00 0.00 0.00 0.00 0.00 0.00
0.01 0.00 0.00 0.00 0.00 0.00 0.00 0.00 0.00 0.00 0.00 0.00 0.02 0.03 0.01 0.01 0.01 0.00 0.00 0.00 0.00 0.00 0.00 0.00 0.00 0.00 0.00 0.00 0.00 0.00 0.00 0.00 0.00 0.00 0.00 0.00 0.00 0.00 0.00 0.00 0.00 0.00 0.00 0.00 0.00
0.02 0.02 0.01 0.01 0.01 0.00 0.00 0.00 0.00 0.00 0.00 0.00 0.01 0.03 0.02 0.00 0.00 0.00 0.00 0.00 0.00 0.00 0.01 0.00 0.00 0.00 0.00 0.00 0.00 0.00 0.00 0.00 0.00 0.00 0.00 0.00 0.00 0.00 0.00 0.00 0.00 0.00 0.00 0.00 0.00
0.03 0.02 0.02 0.01 0.01 0.01 0.00 0.00 0.00 0.00 0.00 0.00 0.01 0.02 0.01 0.00 0.00 0.00 0.00 0.00 0.00 0.00 0.01 0.01 0.00 0.00 0.00 0.00 0.00 0.00 0.00 0.00 0.00 0.00 0.00 0.00 0.00 0.00 0.00 0.00 0.00 0.00 0.00 0.00 0.00
0.02 0.02 0.04 0.02 0.02 0.00 0.01 0.00 0.00 0.00 0.00 0.00 0.00 0.01 0.01 0.00 0.00 0.00 0.00 0.00 0.00 0.02 0.00 0.00 0.00 0.00 0.00 0.00 0.00 0.00 0.00 0.00 0.00 0.00 0.00 0.00 0.00 0.00 0.00 0.00 0.00 0.00 0.00 0.00 0.00
0.01 0.03 0.03 0.03 0.02 0.01 0.01 0.01 0.01 0.01 0.01 0.00 0.00 0.01 0.01 0.00 0.00 0.00 0.01 0.01 0.01 0.03 0.00 0.00 0.00 0.00 0.00 0.00 0.00 0.00 0.00 0.00 0.00 0.00 0.00 0.00 0.00 0.00 0.00 0.00 0.00 0.00 0.00 0.00 0.00
0.02 0.02 0.01 0.04 0.03 0.03 0.04 0.02 0.01 0.00 0.00 0.00 0.00 0.02 0.01 0.00 0.00 0.00 0.02 0.05 0.07 0.05 0.01 0.00 0.00 0.00 0.00 0.00 0.00 0.00 0.00 0.00 0.00 0.00 0.00 0.00 0.00 0.00 0.00 0.00 0.00 0.00 0.00 0.00 0.00
0.03 0.01 0.02 0.03 0.03 0.03 0.02 0.01 0.00 0.01 0.02 0.00 0.00 0.04 0.01 0.00 0.00 0.00 0.00 0.03 0.06 0.11 0.07 0.04 0.03 0.01 0.00 0.00 0.00 0.00 0.00 0.00 0.00 0.00 0.00 0.00 0.00 0.00 0.00 0.00 0.00 0.00 0.00 0.00 0.00
0.03 0.01 0.02 0.02 0.03 0.02 0.01 0.01 0.00 0.00 0.01 0.00 0.01 0.02 0.00 0.00 0.00 0.00 0.00 0.00 0.00 0.03 0.08 0.11 0.07 0.02 0.00 0.00 0.00 0.00 0.00 0.00 0.00 0.00 0.00 0.00 0.00 0.00 0.00 0.00 0.00 0.00 0.00 0.00 0.00
0.01 0.01 0.01 0.01 0.02 0.02 0.01 0.00 0.00 0.00 0.01 0.01 0.04 0.01 0.00 0.00 0.00 0.00 0.00 0.00 0.06 0.08 0.06 0.08 0.05 0.01 0.00 0.00 0.00 0.00 0.00 0.00 0.00 0.00 0.00 0.00 0.00 0.00 0.00 0.00 0.00 0.00 0.00 0.00 0.00
0.01 0.01 0.01 0.00 0.01 0.04 0.02 0.00 0.00 0.01 0.02 0.01 0.01 0.00 0.00 0.00 0.00 0.00 0.00 0.01 0.12 0.09 0.03 0.03 0.02 0.00 0.00 0.00 0.00 0.00 0.00 0.00 0.00 0.00 0.00 0.00 0.00 0.00 0.00 0.00 0.00 0.00 0.00 0.00 0.00
0.02 0.01 0.00 0.00 0.01 0.02 0.01 0.00 0.00 0.00 0.00 0.00 0.00 0.00 0.00 0.00 0.00 0.00 0.00 0.01 0.06 0.03 0.01 0.01 0.01 0.00 0.00 0.00 0.00 0.00 0.00 0.00 0.00 0.00 0.00 0.00 0.00 0.00 0.00 0.00 0.00 0.00 0.00 0.00 0.00
0.00 0.00 0.00 0.00 0.00 0.00 0.00 0.00 0.00 0.00 0.00 0.00 0.00 0.00 0.00 0.00 0.00 0.00 0.00 0.02 0.03 0.01 0.00 0.00 0.00 0.00 0.00 0.00 0.00 0.00 0.00 0.00 0.00 0.00 0.00 0.00 0.00 0.00 0.00 0.00 0.00 0.00 0.00 0.00 0.00
0.01 0.02 0.02 0.03 0.00 0.00 0.01 0.01 0.00 0.00 0.00 0.01 0.00 0.01 0.00 0.00 0.00 0.00 0.00 0.01 0.01 0.00 0.00 0.00 0.00 0.00 0.00 0.00 0.00 0.00 0.00 0.00 0.00 0.00 0.00 0.00 0.00 0.00 0.00 0.00 0.00 0.00 0.00 0.00 0.00
0.02 0.03 0.07 0.10 0.04 0.00 0.02 0.02 0.00 0.00 0.00 0.01 0.01 0.01 0.00 0.00 0.00 0.02 0.01 0.00 0.00 0.00 0.00 0.00 0.00 0.00 0.00 0.00 0.00 0.00 0.00 0.00 0.00 0.00 0.00 0.00 0.00 0.00 0.00 0.00 0.00 0.00 0.00 0.00 0.00
0.02 0.04 0.05 0.07 0.03 0.01 0.00 0.01 0.00 0.00 0.00 0.01 0.01 0.00 0.01 0.00 0.00 0.01 0.00 0.00 0.00 0.00 0.00 0.00 0.00 0.00 0.00 0.00 0.00 0.00 0.00 0.00 0.00 0.00 0.00 0.00 0.00 0.00 0.00 0.00 0.00 0.00 0.00 0.00 0.00
0.04 0.02 0.01 0.02 0.01 0.00 0.00 0.00 0.00 0.00 0.00 0.00 0.01 0.01 0.00 0.00 0.01 0.01 0.00 0.00 0.00 0.00 0.00 0.00 0.00 0.00 0.00 0.00 0.00 0.00 0.00 0.00 0.00 0.00 0.00 0.00 0.00 0.00 0.00 0.00 0.00 0.00 0.00 0.00 0.00
0.03 0.00 0.00 0.02 0.00 0.00 0.00 0.00 0.00 0.00 0.00 0.00 0.00 0.00 0.00 0.00 0.01 0.01 0.00 0.00 0.00 0.00 0.00 0.00 0.00 0.00 0.00 0.00 0.00 0.00 0.00 0.00 0.00 0.00 0.00 0.00 0.00 0.00 0.00 0.00 0.00 0.00 0.00 0.00 0.00
0.00 0.00 0.00 0.00 0.00 0.00 0.00 0.00 0.00 0.00 0.00 0.00 0.00 0.00 0.00 0.00 0.00 0.00 0.00 0.00 0.00 0.00 0.00 0.00 0.00 0.00 0.00 0.00 0.00 0.00 0.00 0.00 0.00 0.00 0.00 0.00 0.00 0.00 0.00 0.00 0.00 0.00 0.00 0.00 0.00
0.00 0.00 0.00 0.00 0.00 0.00 0.00 0.00 0.00 0.00 0.00 0.00 0.00 0.00 0.00 0.00 0.00 0.00 0.00 0.00 0.00 0.00 0.00 0.00 0.00 0.00 0.00 0.00 0.00 0.00 0.00 0.00 0.00 0.00 0.00 0.00 0.00 0.00 0.00 0.00 0.00 0.00 0.00 0.00 0.00
0.00 0.00 0.00 0.00 0.00 0.00 0.00 0.00 0.00 0.00 0.00 0.00 0.00 0.00 0.00 0.00 0.00 0.00 0.00 0.00 0.00 0.00 0.00 0.00 0.00 0.00 0.00 0.00 0.00 0.00 0.00 0.00 0.00 0.00 0.00 0.00 0.00 0.00 0.00 0.00 0.00 0.00 0.00 0.00 0.00
0.00 0.00 0.00 0.00 0.00 0.00 0.00 0.00 0.00 0.00 0.00 0.00 0.00 0.00 0.00 0.00 0.00 0.00 0.00 0.00 0.00 0.00 0.00 0.00 0.00 0.00 0.00 0.00 0.00 0.00 0.00 0.00 0.00 0.00 0.00 0.00 0.00 0.00 0.00 0.00 0.00 0.00 0.00 0.00 0.00
0.00 0.00 0.00 0.00 0.00 0.00 0.00 0.00 0.00 0.00 0.00 0.00 0.00 0.00 0.00 0.00 0.00 0.00 0.00 0.00 0.00 0.00 0.00 0.00 0.00 0.00 0.00 0.00 0.00 0.00 0.00 0.00 0.00 0.00 0.00 0.00 0.00 0.00 0.00 0.00 0.00 0.00 0.00 0.00 0.00
0.00 0.00 0.00 0.00 0.00 0.00 0.00 0.00 0.00 0.00 0.00 0.00 0.00 0.00 0.00 0.00 0.00 0.00 0.00 0.00 0.00 0.00 0.00 0.00 0.00 0.00 0.00 0.00 0.00 0.00 0.00 0.00 0.00 0.00 0.00 0.00 0.00 0.00 0.00 0.00 0.00 0.00 0.00 0.00 0.00
0.00 0.00 0.00 0.00 0.00 0.00 0.00 0.00 0.00 0.00 0.00 0.00 0.00 0.00 0.00 0.00 0.00 0.00 0.00 0.00 0.00 0.00 0.00 0.00 0.00 0.00 0.00 0.00 0.00 0.00 0.00 0.00 0.00 0.00 0.00 0.00 0.00 0.00 0.00 0.00 0.00 0.00 0.00 0.00 0.00
0.00 0.00 0.00 0.00 0.00 0.00 0.00 0.00 0.00 0.00 0.00 0.00 0.00 0.00 0.00 0.00 0.00 0.00 0.00 0.00 0.00 0.00 0.00 0.00 0.00 0.00 0.00 0.00 0.00 0.00 0.00 0.00 0.00 0.00 0.00 0.00 0.00 0.00 0.00 0.00 0.00 0.00 0.00 0.00 0.00
0.00 0.00 0.00 0.00 0.00 0.00 0.00 0.00 0.00 0.00 0.00 0.00 0.00 0.00 0.00 0.00 0.00 0.00 0.00 0.00 0.00 0.00 0.00 0.00 0.00 0.00 0.00 0.00 0.00 0.00 0.00 0.00 0.00 0.00 0.00 0.00 0.00 0.00 0.00 0.00 0.00 0.00 0.00 0.00 0.00
MSLP
1017.36 1016.88 1016.66 1016.46 1016.19 1015.96 1015.80 1015.62 1015.32 1014.79 1014.32 1013.78 1013.26 1013.10 1013.05 1013.34 1013.38 1013.59 1013.22 1012.59 1012.30 1012.26 1011.88 1012.30 1012.84 1013.32 1013.92 1014.24 1014.23 1014.57 1015.33 1015.42 1014.76 1014.19 1012.99 1012.10 1011.55 1010.92 1010.56 1010.47 1009.97 1009.62 1009.54 1009.22 1009.36
1017.20 1016.74 1016.39 1015.93 1015.73 1015.42 1015.16 1015.10 1014.99 1014.62 1014.05 1013.63 1013.13 1012.84 1012.70 1012.94 1013.24 1012.77 1011.84 1011.88 1011.70 1011.80 1012.03 1012.19 1012.73 1013.41 1014.15 1014.22 1014.27 1014.39 1014.73 1014.39 1013.73 1013.08 1012.65 1012.18 1011.86 1011.56 1011.13 1010.85 1010.40 1010.02 1009.57 1009.63 1009.85
1016.86 1016.52 1016.22 1015.95 1015.62 1015.20 1014.82 1014.53 1014.37 1014.08 1013.79 1013.35 1012.91 1012.57 1012.30 1012.62 1012.96 1010.92 1009.98 1010.86 1010.99 1011.37 1011.88 1012.12 1012.44 1013.18 1014.02 1014.08 1014.13 1014.06 1014.00 1013.67 1013.06 1012.62 1012.36 1012.34 1012.14 1011.78 1011.63 1011.39 1011.12 1011.07 1010.85 1010.42 1010.86
1016.51 1016.07 1015.63 1015.30 1014.99 1014.74 1014.45 1014.10 1013.89 1013.66 1013.26 1013.07 1012.66 1012.22 1011.88 1012.21 1011.92 1009.41 1009.13 1009.48 1010.30 1010.92 1011.70 1012.18 1012.64 1013.22 1013.66 1013.91 1013.77 1013.82 1013.45 1013.26 1012.96 1012.60 1012.54 1012.46 1012.32 1012.16 1011.89 1011.53 1011.31 1011.42 1011.40 1011.22 1011.12
1016.10 1015.75 1015.47 1015.12 1014.71 1014.32 1014.01 1013.84 1013.48 1013.14 1012.81 1012.67 1012.35 1012.13 1011.86 1011.73 1010.32 1008.98 1008.99 1008.70 1010.07 1010.64 1011.35 1011.95 1012.42 1012.90 1013.30 1013.61 1013.78 1013.62 1013.31 1013.03 1012.77 1012.66 1012.63 1012.61 1012.61 1012.54 1011.89 1011.29 1011.61 1011.39 1011.37 1011.41 1011.31
1015.77 1015.47 1015.09 1014.68 1014.46 1013.97 1013.80 1013.56 1013.17 1012.82 1012.62 1012.37 1012.10 1012.05 1011.71 1011.01 1009.06 1008.82 1008.86 1008.89 1009.58 1010.40 1011.07 1011.62 1012.04 1012.50 1012.95 1013.21 1013.48 1013.14 1013.29 1013.06 1012.91 1012.73 1012.68 1012.66 1012.62 1012.64 1012.01 1011.55 1011.47 1011.84 1011.67 1011.55 1011.57
1015.46 1015.17 1014.80 1014.43 1014.05 1013.67 1013.40 1013.11 1012.79 1012.45 1012.19 1012.01 1011.82 1011.74 1010.87 1009.78 1008.80 1008.43 1008.68 1008.95 1009.47 1010.14 1010.86 1011.28 1011.66 1012.23 1012.74 1013.13 1012.96 1013.26 1013.58 1013.29 1012.89 1012.85 1012.81 1012.74 1012.32 1012.19 1012.10 1011.91 1011.78 1011.33 1011.87 1011.84 1011.72
1015.15 1014.86 1014.43 1014.09 1013.69 1013.33 1013.06 1012.75 1012.29 1011.88 1011.66 1011.62 1011.54 1011.37 1010.12 1009.28 1009.09 1009.10 1009.12 1009.44 1009.97 1010.41 1010.64 1011.05 1011.53 1012.17 1012.53 1012.73 1012.98 1013.54 1013.88 1013.78 1012.86 1012.87 1012.76 1013.00 1011.01 1012.10 1011.80 1011.95 1012.09 1011.67 1011.23 1011.28 1011.26
1014.88 1014.51 1014.07 1013.65 1013.28 1012.96 1012.65 1012.34 1011.62 1011.24 1011.05 1011.14 1011.35 1011.21 1009.93 1008.79 1009.03 1008.87 1009.24 1009.49 1009.93 1010.44 1010.98 1010.90 1011.70 1012.38 1012.71 1013.09 1013.79 1013.85 1014.16 1014.03 1013.50 1012.83 1013.00 1013.05 1012.25 1011.82 1011.48 1011.79 1012.00 1011.64 1011.12 1010.95 1010.65
1014.64 1014.27 1013.93 1013.35 1012.90 1012.55 1012.40 1011.76 1010.54 1010.49 1010.62 1010.89 1010.81 1010.93 1010.07 1008.85 1008.62 1008.81 1009.25 1009.49 1010.07 1010.62 1011.37 1011.50 1011.95 1012.38 1012.85 1013.37 1013.55 1014.02 1014.28 1014.19 1013.84 1013.37 1013.35 1013.32 1013.13 1012.16 1012.02 1012.00 1011.99 1011.72 1011.18 1010.62 1010.32
1014.44 1014.05 1013.68 1013.11 1012.59 1012.27 1012.29 1011.80 1011.23 1011.06 1010.72 1010.24 1009.90 1009.62 1008.94 1008.60 1008.47 1009.00 1009.32 1009.84 1010.38 1010.93 1011.06 1011.55 1011.97 1012.04 1012.64 1013.20 1013.39 1013.88 1014.30 1014.36 1014.02 1013.67 1013.66 1013.52 1013.34 1012.42 1011.86 1011.86 1011.77 1011.24 1010.58 1010.02 1009.60
1014.03 1013.60 1013.20 1012.73 1012.38 1012.04 1012.41 1012.43 1012.15 1012.04 1011.18 1010.35 1010.12 1009.82 1009.27 1009.01 1008.81 1009.18 1009.36 1010.03 1010.60 1011.02 1011.32 1011.93 1011.84 1012.42 1012.87 1013.29 1013.71 1014.08 1014.56 1014.69 1014.37 1014.14 1014.25 1013.86 1013.37 1012.27 1011.26 1010.90 1010.60 1010.17 1009.70 1009.35 1009.08
1013.58 1013.14 1012.84 1012.42 1012.04 1012.12 1012.32 1012.02 1011.56 1011.69 1011.47 1011.12 1010.61 1009.98 1009.41 1008.80 1008.92 1009.31 1009.60 1009.87 1010.30 1011.06 1011.31 1011.70 1011.93 1012.36 1012.83 1013.61 1014.29 1014.42 1014.92 1015.10 1015.19 1014.94 1015.08 1014.75 1013.25 1011.97 1010.51 1010.20 1009.94 1009.58 1009.34 1009.20 1008.61
1013.11 1012.50 1012.18 1012.01 1012.11 1012.02 1011.78 1011.34 1011.55 1011.68 1011.59 1011.49 1010.66 1009.70 1009.33 1008.54 1009.23 1009.43 1009.57 1009.78 1010.42 1011.11 1011.56 1011.89 1012.07 1012.69 1013.22 1013.79 1014.07 1014.66 1014.93 1015.37 1015.86 1015.98 1016.73 1016.25 1015.13 1012.94 1011.15 1010.59 1009.98 1009.48 1009.57 1009.30 1008.71
1012.57 1011.81 1011.16 1011.33 1011.26 1011.61 1011.61 1011.38 1011.73 1011.83 1011.66 1010.79 1010.24 1009.31 1008.80 1008.86 1009.14 1009.88 1009.58 1009.71 1010.37 1010.99 1011.81 1012.50 1012.55 1012.82 1013.23 1013.43 1013.88 1014.86 1015.35 1016.11 1016.77 1017.31 1017.75 1017.24 1017.04 1012.95 1011.84 1010.74 1009.99 1009.95 1009.75 1009.38 1009.03
1012.03 1010.95 1010.54 1010.80 1010.99 1011.18 1011.30 1011.56 1011.97 1012.30 1011.12 1010.35 1009.70 1009.15 1009.16 1009.22 1009.40 1010.26 1010.21 1009.79 1010.34 1011.43 1012.12 1012.80 1012.72 1012.79 1013.16 1013.70 1014.08 1015.14 1016.01 1017.04 1017.98 1018.54 1018.75 1017.57 1017.11 1013.70 1012.07 1011.30 1010.53 1010.35 1010.36 1009.96 1009.57
1011.82 1011.24 1010.74 1010.78 1011.24 1011.35 1011.54 1012.03 1012.15 1011.84 1011.41 1010.47 1009.33 1009.35 1009.45 1009.76 1010.31 1010.75 1010.52 1010.96 1011.54 1012.54 1013.16 1013.53 1013.54 1013.22 1013.35 1014.11 1014.76 1015.66 1016.90 1018.81 1019.52 1019.76 1018.99 1018.05 1017.55 1013.59 1011.84 1011.30 1011.01 1011.00 1010.85 1010.50 1010.07
1011.95 1011.77 1011.70 1011.51 1011.42 1011.70 1011.92 1012.34 1011.82 1011.20 1010.73 1009.68 1009.37 1009.86 1010.25 1010.53 1010.85 1011.17 1011.52 1012.24 1012.37 1012.64 1013.70 1014.07 1014.45 1013.83 1013.83 1014.24 1015.13 1016.40 1017.34 1019.15 1019.86 1020.47 1019.78 1018.54 1016.60 1013.03 1011.81 1011.40 1011.12 1011.11 1011.07 1010.73 1010.32
1012.23 1012.29 1012.32 1012.20 1011.91 1011.97 1012.42 1011.98 1011.73 1011.06 1010.25 1009.47 1010.05 1010.55 1010.88 1011.10 1011.35 1011.89 1012.22 1012.41 1012.54 1012.71 1013.45 1014.28 1014.45 1014.29 1014.17 1014.32 1015.16 1016.75 1017.73 1018.76 1019.91 1020.96 1020.42 1018.16 1015.69 1012.89 1011.70 1011.46 1011.37 1011.25 1011.08 1010.91 1010.59
1013.22 1012.94 1012.64 1012.30 1011.96 1012.29 1012.71 1012.01 1011.08 1010.57 1009.44 1009.67 1010.27 1010.89 1011.12 1011.70 1011.76 1012.16 1012.29 1012.45 1012.63 1012.86 1013.03 1013.90 1014.65 1014.51 1014.40 1014.61 1015.58 1016.16 1017.39 1018.97 1020.29 1021.11 1020.41 1018.35 1016.30 1013.73 1012.29 1011.72 1011.47 1011.33 1011.03 1010.75 1010.38
1013.49 1013.45 1012.76 1012.44 1012.40 1012.73 1013.12 1012.30 1011.03 1010.04 1009.65 1009.67 1010.13 1010.52 1011.19 1011.60 1011.95 1012.30 1012.41 1012.59 1012.54 1012.94 1013.07 1013.67 1014.62 1015.28 1014.93 1015.35 1016.04 1016.99 1017.47 1018.68 1019.78 1020.50 1020.72 1019.60 1015.53 1013.02 1012.24 1011.89 1011.84 1011.54 1011.24 1010.62 1010.20
1014.05 1013.92 1012.91 1012.69 1013.14 1013.13 1012.93 1012.71 1011.47 1010.67 1009.94 1009.67 1009.83 1010.34 1010.99 1011.47 1011.99 1012.25 1012.51 1012.38 1012.34 1012.71 1013.35 1013.76 1014.77 1015.88 1015.84 1016.07 1016.24 1016.55 1017.27 1018.34 1019.62 1020.85 1021.13 1020.00 1015.80 1012.91 1012.24 1011.89 1011.64 1011.16 1010.67 1010.24 1010.00
1014.69 1014.40 1013.25 1013.35 1013.55 1013.14 1012.79 1012.16 1011.61 1010.90 1010.25 1009.74 1009.94 1010.13 1010.69 1011.35 1011.99 1012.36 1012.43 1012.24 1012.36 1012.67 1013.18 1013.84 1015.15 1016.47 1016.84 1016.89 1016.65 1016.82 1017.25 1018.07 1019.17 1019.97 1020.57 1019.55 1015.26 1012.72 1012.12 1011.27 1011.00 1010.75 1010.38 1010.18 1010.11
1014.90 1014.83 1014.22 1013.49 1013.48 1013.15 1012.43 1011.81 1010.96 1010.27 1009.96 1009.66 1009.88 1010.01 1010.68 1011.42 1011.75 1012.44 1012.57 1012.58 1012.46 1012.72 1013.19 1013.67 1015.40 1016.36 1016.87 1016.77 1016.87 1017.10 1017.15 1017.64 1018.49 1019.65 1019.03 1017.12 1014.72 1012.86 1011.68 1011.28 1010.79 1010.61 1010.80 1010.55 1010.38
1015.29 1015.40 1015.14 1014.16 1013.39 1012.82 1012.18 1011.53 1010.92 1010.54 1010.06 1009.91 1010.26 1010.28 1010.80 1011.70 1012.12 1012.49 1012.71 1012.76 1012.86 1013.09 1013.61 1014.30 1015.98 1016.89 1016.97 1016.78 1016.80 1016.77 1016.79 1017.07 1017.57 1017.48 1017.33 1015.60 1014.46 1012.20 1011.51 1011.18 1011.02 1011.24 1011.29 1011.15 1010.83
1015.71 1015.61 1014.82 1014.37 1013.57 1013.12 1012.31 1011.72 1011.10 1010.86 1010.61 1010.60 1010.80 1010.99 1011.15 1011.85 1012.17 1012.36 1012.54 1012.87 1013.11 1013.59 1014.11 1014.99 1016.64 1017.46 1017.23 1016.66 1016.47 1016.32 1015.93 1016.03 1016.15 1016.28 1015.88 1014.74 1013.39 1011.42 1011.24 1011.07 1011.33 1011.90 1012.15 1011.90 1011.71
1016.00 1015.72 1015.47 1014.43 1014.02 1013.50 1012.71 1011.95 1011.50 1011.05 1011.38 1011.23 1011.47 1011.65 1011.95 1012.24 1012.10 1012.07 1012.14 1012.74 1013.02 1013.73 1014.53 1015.37 1016.51 1017.77 1017.55 1016.80 1016.20 1015.51 1013.74 1013.96 1014.19 1014.10 1013.84 1013.58 1011.62 1011.14 1011.04 1011.24 1012.03 1012.55 1012.78 1012.70 1012.59
Thickness
5534 5533 5530 5527 5528 5526 5524 5523 5525 5529 5534 5540 5547 5551 5554 5557 5561 5568 5581 5590 5598 5604 5614 5618 5619 5619 5620 5621 5629 5629 5614 5617 5637 5643 5663 5675 5677 5688 5698 5700 5710 5716 5719 5731 5735
5524 5520 5518 5517 5514 5514 5513 5512 5513 5518 5523 5530 5537 5543 5547 5550 5554 5567 5580 5582 5592 5600 5605 5608 5608 5610 5606 5614 5619 5618 5611 5625 5646 5654 5660 5664 5670 5673 5681 5684 5699 5707 5720 5723 5724
5511 5507 5503 5497 5493 5492 5495 5495 5499 5505 5511 5519 5527 5535 5541 5545 5547 5572 5581 5582 5589 5594 5597 5602 5606 5607 5602 5609 5613 5617 5616 5634 5645 5655 5661 5657 5660 5672 5670 5674 5688 5693 5699 5711 5711
5498 5491 5483 5472 5465 5464 5465 5471 5478 5487 5498 5505 5515 5526 5533 5539 5542 5571 5580 5584 5584 5587 5589 5592 5597 5597 5599 5602 5612 5614 5625 5631 5640 5648 5652 5651 5658 5660 5667 5677 5689 5691 5694 5700 5705
5482 5470 5456 5444 5434 5430 5436 5441 5453 5467 5482 5492 5504 5513 5521 5530 5550 5567 5572 5581 5577 5581 5584 5587 5590 5594 5594 5599 5605 5609 5619 5628 5637 5640 5645 5648 5647 5652 5665 5681 5681 5687 5690 5691 5695
5466 5450 5435 5422 5411 5410 5411 5416 5427 5446 5463 5478 5491 5500 5511 5524 5547 5559 5565 5574 5577 5576 5579 5584 5587 5591 5592 5596 5598 5610 5612 5620 5628 5634 5638 5641 5645 5649 5665 5672 5674 5676 5680 5683 5686
5449 5435 5420 5406 5399 5398 5399 5402 5409 5426 5448 5465 5480 5491 5506 5526 5543 5556 5560 5566 5572 5573 5574 5580 5583 5585 5589 5591 5601 5604 5602 5611 5621 5628 5630 5639 5641 5643 5659 5663 5663 5674 5671 5672 5677
5437 5423 5410 5400 5394 5394 5395 5396 5400 5415 5436 5455 5470 5484 5507 5526 5534 5543 5551 5556 5560 5565 5571 5575 5579 5580 5584 5591 5593 5590 5592 5592 5618 5623 5628 5630 5646 5649 5653 5656 5654 5660 5671 5672 5676
5428 5416 5406 5399 5397 5397 5397 5398 5401 5412 5430 5448 5464 5477 5500 5525 5530 5539 5545 5549 5554 5558 5562 5574 5571 5570 5575 5574 5572 5580 5573 5585 5602 5616 5620 5619 5626 5649 5652 5651 5650 5655 5666 5670 5674
5419 5411 5403 5401 5401 5400 5398 5401 5408 5412 5427 5445 5462 5475 5495 5519 5527 5534 5540 5547 5548 5553 5553 5558 5560 5562 5564 5566 5569 5571 5576 5581 5589 5607 5610 5611 5610 5639 5642 5643 5644 5648 5654 5662 5670
5413 5405 5401 5401 5402 5401 5399 5399 5399 5406 5422 5449 5470 5486 5506 5517 5525 5528 5536 5540 5542 5543 5549 5552 5555 5561 5569 5569 5573 5571 5574 5579 5589 5599 5601 5605 5605 5626 5636 5634 5636 5643 5652 5661 5668
5412 5407 5401 5400 5399 5400 5395 5393 5392 5397 5419 5446 5463 5481 5497 5510 5519 5524 5533 5534 5536 5539 5544 5547 5553 5557 5562 5565 5568 5568 5569 5573 5581 5591 5594 5597 5602 5622 5636 5641 5643 5649 5655 5661 5666
5410 5405 5400 5396 5397 5395 5392 5393 5397 5403 5419 5440 5461 5478 5495 5513 5517 5521 5530 5533 5536 5536 5541 5546 5554 5556 5557 5555 5554 5559 5559 5564 5571 5578 5580 5582 5602 5617 5636 5638 5641 5644 5650 5654 5662
5408 5406 5401 5396 5394 5392 5392 5396 5396 5407 5402 5438 5461 5484 5498 5513 5512 5521 5530 5533 5532 5529 5537 5542 5550 5550 5548 5551 5553 5551 5561 5564 5562 5567 5562 5570 5570 5599 5618 5620 5630 5635 5635 5640 5649
5408 5407 5405 5399 5398 5393 5393 5394 5400 5414 5428 5458 5468 5488 5503 5511 5516 5514 5526 5533 5529 5536 5538 5534 5542 5543 5546 5552 5555 5552 5556 5554 5553 5544 5547 5558 5550 5597 5605 5619 5630 5630 5631 5635 5640
5409 5410 5408 5403 5399 5396 5393 5396 5409 5418 5458 5468 5481 5492 5502 5510 5516 5514 5520 5533 5536 5531 5532 5532 5542 5546 5547 5546 5553 5548 5547 5536 5527 5526 5507 5549 5551 5585 5603 5614 5617 5617 5618 5623 5629
5409 5408 5408 5404 5400 5396 5400 5408 5395 5429 5443 5469 5488 5502 5506 5511 5509 5511 5519 5518 5516 5514 5508 5525 5529 5540 5544 5539 5545 5539 5524 5485 5501 5497 5529 5541 5541 5574 5599 5605 5609 5609 5611 5611 5617
5414 5411 5408 5408 5407 5408 5415 5415 5430 5452 5451 5475 5499 5502 5497 5508 5507 5512 5513 5503 5517 5516 5504 5511 5514 5533 5539 5539 5535 5533 5525 5491 5525 5524 5523 5535 5547 5584 5595 5598 5600 5603 5604 5606 5611
5429 5425 5422 5424 5429 5432 5431 5446 5451 5457 5463 5493 5496 5493 5495 5501 5506 5503 5510 5511 5518 5524 5511 5494 5514 5528 5535 5539 5537 5523 5503 5522 5498 5484 5484 5528 5550 5579 5590 5591 5591 5590 5594 5594 5597
5443 5441 5440 5441 5444 5442 5441 5453 5460 5465 5497 5494 5488 5492 5501 5497 5505 5504 5514 5518 5520 5523 5526 5518 5506 5530 5535 5540 5534 5533 5527 5507 5469 5476 5511 5530 5533 5560 5583 5587 5583 5580 5583 5587 5589
5453 5451 5455 5455 5455 5445 5443 5459 5471 5496 5502 5506 5499 5506 5498 5500 5506 5511 5515 5518 5522 5521 5528 5524 5508 5520 5534 5528 5522 5522 5511 5511 5501 5499 5484 5509 5552 5562 5576 5577 5572 5569 5573 5577 5584
5459 5456 5466 5467 5453 5460 5466 5461 5476 5491 5503 5510 5511 5511 5507 5508 5509 5509 5508 5519 5523 5524 5524 5528 5505 5515 5526 5524 5525 5529 5526 5516 5489 5494 5471 5471 5529 5568 5564 5565 5564 5572 5573 5580 5575
5465 5467 5473 5467 5460 5473 5475 5483 5490 5498 5502 5519 5517 5520 5515 5508 5508 5509 5514 5523 5523 5527 5525 5528 5499 5474 5504 5511 5517 5520 5524 5517 5504 5483 5466 5476 5530 5562 5553 5569 5568 5569 5572 5571 5560
5470 5463 5471 5480 5477 5480 5491 5497 5507 5514 5518 5521 5519 5522 5518 5515 5513 5507 5513 5519 5527 5529 5531 5529 5503 5503 5496 5509 5501 5495 5517 5517 5500 5473 5493 5499 5533 5556 5563 5562 5568 5568 5556 5556 5555
5472 5476 5475 5487 5495 5500 5502 5506 5511 5511 5521 5521 5521 5523 5521 5513 5515 5510 5511 5518 5523 5527 5525 5523 5505 5503 5508 5514 5518 5516 5519 5512 5494 5515 5492 5526 5530 5557 5560 5561 5561 5549 5546 5544 5543
5479 5477 5482 5489 5501 5493 5504 5510 5512 5515 5518 5519 5514 5516 5515 5512 5515 5513 5512 5513 5523 5520 5518 5510 5488 5489 5479 5511 5508 5503 5516 5517 5516 5519 5520 5532 5541 5560 5559 5560 5552 5537 5531 5531 5528
5474 5475 5480 5489 5487 5493 5501 5516 5517 5522 5516 5513 5513 5510 5506 5507 5511 5519 5523 5517 5519 5512 5508 5514 5500 5473 5484 5504 5510 5505 5525 5526 5529 5527 5540 5531 5553 5559 5556 5555 5536 5526 5522 5521 5519